| time (UTC) | temp C | wind direction | speed KPH | gust KPH | rain 1hr cm | rain 24hr cm | rain mn cm | humidity % | barometer mb |
| 20260506103021 | 8 | 181 | 1.6 | 6.4 | 0.00 | 0.00 | 0.00 | 53 | 1030.7 |
| 20260506101533 | 8 | 240 | 0.0 | 9.7 | 0.00 | 0.00 | 0.00 | 52 | 1030.6 |
| 20260506100013 | 8 | 231 | 0.0 | 9.7 | 0.00 | 0.00 | 0.00 | 51 | 1030.3 |
| 20260506094521 | 9 | 93 | 0.0 | 6.4 | 0.00 | 0.00 | 0.00 | 51 | 1030.1 |
| 20260506093014 | 9 | 203 | 0.0 | 14.5 | 0.00 | 0.00 | 0.00 | 50 | 1030.1 |
| 20260506091507 | 9 | 186 | 3.2 | 12.9 | 0.00 | 0.00 | 0.00 | 50 | 1029.9 |
| 20260506090002 | 9 | 13 | 1.6 | 6.4 | 0.00 | 0.00 | 0.00 | 48 | 1029.7 |
| 20260506084623 | 10 | 173 | 0.0 | 12.9 | 0.00 | 0.00 | 0.00 | 48 | 1029.7 |
| 20260506083057 | 10 | 245 | 1.6 | 8.0 | 0.00 | 0.00 | 0.00 | 46 | 1029.7 |
| 20260506081557 | 10 | 231 | 0.0 | 9.7 | 0.00 | 0.00 | 0.00 | 44 | 1029.5 |
| 20260506073048 | 11 | 207 | 3.2 | 12.9 | 0.00 | 0.00 | 0.00 | 42 | 1029.5 |
| 20260506071545 | 11 | 134 | 0.0 | 8.0 | 0.00 | 0.00 | 0.00 | 42 | 1029.4 |
| 20260506070140 | 11 | 203 | 1.6 | 12.9 | 0.00 | 0.00 | 0.00 | 41 | 1029.5 |
| 20260506061535 | 11 | 205 | 3.2 | 16.1 | 0.00 | 0.00 | 0.00 | 39 | 1029.3 |
| 20260506044655 | 12 | 230 | 0.0 | 17.7 | 0.00 | 0.00 | 0.00 | 36 | 1028.5 |
| 20260506043048 | 12 | 223 | 3.2 | 12.9 | 0.00 | 0.00 | 0.00 | 36 | 1028.3 |
| 20260506041559 | 12 | 220 | 1.6 | 9.7 | 0.00 | 0.00 | 0.00 | 36 | 1028.0 |
| 20260506040044 | 12 | 213 | 0.0 | 8.0 | 0.00 | 0.00 | 0.00 | 35 | 1027.8 |
| 20260506034619 | 12 | 249 | 1.6 | 11.3 | 0.00 | 0.00 | 0.00 | 35 | 1027.7 |
| 20260506033041 | 12 | 323 | 1.6 | 14.5 | 0.00 | 0.00 | 0.00 | 36 | 1027.4 |
| 20260506031543 | 12 | 205 | 1.6 | 19.3 | 0.00 | 0.00 | 0.00 | 36 | 1027.3 |
| 20260506030040 | 12 | 160 | 1.6 | 20.9 | 0.00 | 0.00 | 0.00 | 36 | 1027.1 |
| 20260506024538 | 13 | 210 | 3.2 | 17.7 | 0.00 | 0.00 | 0.00 | 35 | 1026.9 |
| 20260506023054 | 13 | 180 | 6.4 | 17.7 | 0.00 | 0.00 | 0.00 | 33 | 1027.0 |
| 20260506021535 | 13 | 212 | 3.2 | 22.5 | 0.00 | 0.00 | 0.00 | 33 | 1026.8 |
| 20260506020035 | 13 | 218 | 3.2 | 20.9 | 0.00 | 0.00 | 0.00 | 33 | 1026.5 |
| 20260506014534 | 13 | 249 | 4.8 | 16.1 | 0.00 | 0.00 | 0.00 | 34 | 1026.2 |
| 20260506013003 | 13 | 206 | 0.0 | 12.9 | 0.00 | 0.00 | 0.00 | 34 | 1025.9 |
| 20260506011502 | 13 | 205 | 3.2 | 12.9 | 0.00 | 0.00 | 0.00 | 35 | 1025.7 |
| 20260506010104 | 13 | 207 | 1.6 | 20.9 | 0.00 | 0.00 | 0.00 | 35 | 1025.7 |
| 20260506004627 | 13 | 205 | 6.4 | 19.3 | 0.00 | 0.00 | 0.00 | 36 | 1025.7 |
| 20260506003111 | 13 | 248 | 4.8 | 20.9 | 0.00 | 0.00 | 0.00 | 35 | 1025.7 |
| 20260506001558 | 13 | 204 | 4.8 | 17.7 | 0.00 | 0.00 | 0.00 | 36 | 1025.4 |
| 20260506000057 | 14 | 236 | 8.0 | 17.7 | 0.00 | 0.00 | 0.00 | 38 | 1025.2 |
| 20260505234627 | 14 | 248 | 6.4 | 19.3 | 0.00 | 0.00 | 0.00 | 38 | 1025.0 |
| 20260505233102 | 14 | 247 | 9.7 | 25.7 | 0.00 | 0.00 | 0.00 | 39 | 1024.9 |
| 20260505231554 | 13 | 196 | 6.4 | 29.0 | 0.00 | 0.00 | 0.00 | 46 | 1025.0 |
| 20260505230051 | 13 | 224 | 3.2 | 14.5 | 0.00 | 0.00 | 0.00 | 49 | 1025.2 |
| 20260505224551 | 13 | 307 | 3.2 | 17.7 | 0.00 | 0.00 | 0.00 | 50 | 1025.3 |
| 20260505223051 | 13 | 205 | 6.4 | 17.7 | 0.00 | 0.00 | 0.00 | 48 | 1025.2 |
| 20260505221550 | 13 | 200 | 4.8 | 22.5 | 0.00 | 0.00 | 0.00 | 48 | 1025.2 |
| 20260505220101 | 14 | 200 | 6.4 | 30.6 | 0.00 | 0.00 | 0.00 | 47 | 1025.1 |
| 20260505214549 | 15 | 219 | 3.2 | 16.1 | 0.00 | 0.00 | 0.00 | 45 | 1025.1 |
| 20260505213047 | 15 | 212 | 6.4 | 19.3 | 0.00 | 0.00 | 0.00 | 44 | 1025.2 |
| 20260505211551 | 15 | 209 | 4.8 | 16.1 | 0.00 | 0.00 | 0.00 | 46 | 1025.4 |
| 20260505210046 | 15 | 240 | 6.4 | 24.1 | 0.00 | 0.00 | 0.00 | 45 | 1025.5 |
| 20260505204545 | 16 | 210 | 6.4 | 19.3 | 0.00 | 0.00 | 0.00 | 45 | 1025.5 |
| 20260505203042 | 15 | 212 | 6.4 | 25.7 | 0.00 | 0.00 | 0.00 | 44 | 1025.8 |
| 20260505201542 | 14 | 160 | 6.4 | 24.1 | 0.00 | 0.00 | 0.00 | 47 | 1026.0 |
| 20260505200041 | 15 | 171 | 6.4 | 22.5 | 0.00 | 0.00 | 0.00 | 46 | 1026.2 |
| 20260505194542 | 15 | 219 | 8.0 | 24.1 | 0.00 | 0.00 | 0.00 | 46 | 1026.2 |
| 20260505193044 | 15 | 210 | 4.8 | 24.1 | 0.00 | 0.00 | 0.00 | 47 | 1025.9 |
| 20260505191550 | 14 | 229 | 3.2 | 19.3 | 0.00 | 0.00 | 0.00 | 48 | 1026.0 |
| 20260505190035 | 14 | 184 | 8.0 | 25.7 | 0.00 | 0.00 | 0.00 | 48 | 1025.9 |
| 20260505184503 | 15 | 229 | 9.7 | 27.4 | 0.00 | 0.00 | 0.00 | 45 | 1026.2 |
| 20260505183007 | 15 | 208 | 6.4 | 16.1 | 0.00 | 0.00 | 0.00 | 43 | 1026.2 |
| 20260505181600 | 15 | 218 | 3.2 | 20.9 | 0.00 | 0.00 | 0.00 | 43 | 1026.1 |
| 20260505174611 | 15 | 212 | 6.4 | 16.1 | 0.00 | 0.00 | 0.00 | 41 | 1026.6 |
| 20260505173053 | 13 | 165 | 6.4 | 19.3 | 0.00 | 0.00 | 0.00 | 46 | 1026.8 |
| 20260505171529 | 12 | 218 | 6.4 | 17.7 | 0.00 | 0.00 | 0.00 | 52 | 1026.9 |
| 20260505170027 | 14 | 205 | 8.0 | 14.5 | 0.00 | 0.00 | 0.00 | 40 | 1026.6 |
| 20260505164520 | 14 | 202 | 8.0 | 19.3 | 0.00 | 0.00 | 0.00 | 40 | 1026.6 |
| 20260505163021 | 13 | 146 | 4.8 | 16.1 | 0.00 | 0.00 | 0.00 | 42 | 1026.8 |
| 20260505161518 | 13 | 204 | 3.2 | 16.1 | 0.00 | 0.00 | 0.00 | 43 | 1026.5 |
| 20260505153017 | 12 | 230 | 1.6 | 16.1 | 0.00 | 0.00 | 0.00 | 45 | 1026.2 |
| 20260505151513 | 12 | 236 | 6.4 | 20.9 | 0.00 | 0.00 | 0.00 | 44 | 1026.0 |
| 20260505124523 | -17 | 0.0 | 0.0 | 0.00 | 0.00 | 0.00 | 1024.1 | ||
| 20260505123022 | -17 | 0.0 | 0.0 | 0.00 | 0.00 | 0.00 | 1024.1 | ||
| 20260505121544 | -17 | 0.0 | 0.0 | 0.00 | 0.00 | 0.00 | 1023.9 | ||
| 20260505120040 | -17 | 0.0 | 0.0 | 0.00 | 0.00 | 0.00 | 1024.0 | ||
| 20260505114506 | 12 | 244 | 6.4 | 27.4 | 0.00 | 0.00 | 0.00 | 37 | 1024.3 |
| 20260505113005 | 12 | 168 | 4.8 | 33.8 | 0.00 | 0.00 | 0.00 | 40 | 1024.1 |
| 20260505111609 | 12 | 259 | 4.8 | 25.7 | 0.00 | 0.00 | 0.00 | 40 | 1024.1 |